Date String (YYYY-MM-DD hh:mm:ss) UTC,Instrument flags,absolute air pressure of the measurement (hPa),sample flow rate (lpm),inlet stack bypass flow (lpm),air temperature of the measurement (°C),ambient temperature measured by the external sensor (°C),aerosol sample conditioner tube jacket temperature (°C),OPC LED temperature (°C),internal box temperature (°C),relative humidity of the measurement (%),span deviation,mass concentration of particles derived from Lorenz-Mie calculation of OPC scattering (μg/m³),mass concentration of particles derived from Lorenz-Mie calculation of OPC scattering (μg/m³),mass concentration of particles derived from Lorenz-Mie calculation of OPC scattering (μg/m³)
DateTimeUTC,F1_M11,P_M11,Q1_M11,Q2_M11,T1_M11,T2_M11,T3_M11,T4_M11,T5_M11,U1_M11,ZSPAN_M11,X0_M11,X2_M11,X1_M11
2024-04-23 21:00:00,SystemResetWarning,0831.1,5.03,000.00,025.4,022.4,000.0,034.2,026.1,014.7,0000.0,0021.15,0008.00,0006.78
2024-04-23 21:01:00,SystemResetWarning,0831.2,4.99,000.00,025.2,022.5,000.0,034.2,026.1,014.8,0000.0,0022.58,0008.01,0006.79
2024-04-23 21:02:00,SystemResetWarning,0831.3,5.00,000.00,025.1,022.9,000.0,034.0,026.4,015.0,0000.0,0022.85,0007.99,0006.76
2024-04-23 21:03:00,SystemResetWarning,0831.3,5.00,000.00,025.2,023.2,000.0,033.9,026.6,015.2,0000.0,0021.86,0007.96,0006.72
2024-04-23 21:04:00,SystemResetWarning,0831.3,5.01,000.00,025.2,023.5,000.0,033.9,026.8,014.9,0000.0,0021.96,0007.95,0006.69
2024-04-23 21:05:00,SystemResetWarning,0831.3,4.99,000.00,025.2,023.8,000.0,033.8,027.0,015.0,0000.0,0022.36,0007.93,0006.68
2024-04-23 21:06:00,SystemResetWarning,0831.3,4.99,000.00,025.3,024.1,000.0,033.8,027.1,015.0,0000.0,0022.16,0007.83,0006.65
2024-04-23 21:07:00,SystemResetWarning,0831.3,5.00,000.00,025.3,024.3,000.0,033.8,027.2,015.0,0000.0,0020.56,0007.77,0006.62
2024-04-23 21:08:00,SystemResetWarning,0831.3,5.01,000.00,025.4,024.5,000.0,033.8,027.3,015.2,0000.0,0018.54,0007.76,0006.60
2024-04-23 21:09:00,SystemResetWarning,0831.3,5.00,000.00,025.5,024.6,000.0,033.8,027.3,015.0,0000.0,0018.29,0007.71,0006.56
2024-04-23 21:10:00,SystemResetWarning,0831.3,4.99,000.00,025.5,024.7,000.0,033.8,027.4,015.1,0000.0,0018.92,0007.72,0006.55
2024-04-23 21:11:00,SystemResetWarning,0831.2,5.00,000.00,025.6,024.9,000.0,033.9,027.5,015.1,0000.0,0017.79,0007.73,0006.54
2024-04-23 21:12:00,SystemResetWarning,0831.0,5.00,000.00,025.6,025.0,000.0,033.9,027.5,015.2,0000.0,0017.55,0007.74,0006.53
2024-04-23 21:13:00,SystemResetWarning,0830.8,5.00,000.00,025.7,025.1,000.0,033.9,027.6,015.6,0000.0,0017.81,0007.76,0006.54
2024-04-23 21:14:00,SystemResetWarning,0830.6,5.00,000.00,025.7,025.2,000.0,033.9,027.7,015.5,0000.0,0018.38,0007.80,0006.57
2024-04-23 21:15:00,SystemResetWarning,0830.5,5.00,000.00,025.8,025.2,000.0,034.0,027.7,015.7,0000.0,0018.42,0007.82,0006.59
2024-04-23 21:16:00,SystemResetWarning,0830.6,5.00,000.00,025.8,025.3,000.0,034.0,027.7,015.7,0000.0,0018.25,0007.88,0006.62
2024-04-23 21:17:00,SystemResetWarning,0830.6,4.99,000.00,025.9,025.3,000.0,034.0,027.8,018.2,0000.0,0018.83,0007.95,0006.65
2024-04-23 21:18:00,SystemResetWarning,0830.7,4.99,000.00,025.9,025.4,000.0,034.1,027.8,017.9,0000.0,0019.39,0007.96,0006.63
2024-04-23 21:19:00,SystemResetWarning,0830.7,4.99,000.00,025.9,025.3,000.0,034.1,027.7,018.4,0000.0,0020.06,0007.94,0006.62
2024-04-23 21:20:00,SystemResetWarning,0830.7,5.00,000.00,025.7,023.3,000.0,034.2,026.6,017.2,0000.0,0021.40,0008.04,0006.61
2024-04-23 21:21:00,SystemResetWarning,0830.6,5.00,000.00,025.2,022.2,000.0,034.2,025.8,017.5,0000.0,0023.19,0008.05,0006.60
2024-04-23 21:22:00,SystemResetWarning,0830.5,5.01,000.00,025.0,022.4,000.0,034.0,025.8,018.4,0000.0,0024.48,0008.08,0006.61
2024-04-23 21:23:00,SystemResetWarning,0830.5,5.01,000.00,025.0,022.7,000.0,033.9,026.2,021.9,0000.0,0023.56,0008.06,0006.59
2024-04-23 21:24:00,SystemResetWarning,0830.5,4.99,000.00,025.0,023.1,000.0,033.8,026.5,020.5,0000.0,0022.34,0008.00,0006.55
2024-04-23 21:25:00,SystemResetWarning,0830.6,5.00,000.00,025.1,023.4,000.0,033.8,026.7,020.4,0000.0,0021.66,0007.95,0006.51
2024-04-23 21:26:00,SystemResetWarning,0830.5,5.00,000.00,025.1,023.7,000.0,033.7,026.8,017.5,0000.0,0022.27,0007.90,0006.48
2024-04-23 21:27:00,SystemResetWarning,0830.4,5.00,000.00,025.1,023.9,000.0,033.7,026.9,017.7,0000.0,0022.74,0007.91,0006.46
2024-04-23 21:28:00,SystemResetWarning,0830.4,5.00,000.00,025.2,024.1,000.0,033.7,027.0,018.4,0000.0,0023.27,0007.93,0006.44
2024-04-23 21:29:00,SystemResetWarning,0830.4,5.00,000.00,025.2,024.3,000.0,033.7,027.1,017.5,0000.0,0022.49,0007.92,0006.46
2024-04-23 21:30:00,SystemResetWarning,0830.4,5.00,000.00,025.3,024.4,000.0,033.7,027.1,017.8,0000.0,0022.79,0007.96,0006.49
2024-04-23 21:31:00,SystemResetWarning,0830.4,5.00,000.00,025.3,024.6,000.0,033.7,027.2,017.9,0000.0,0021.82,0007.94,0006.51
2024-04-23 21:32:00,SystemResetWarning,0830.3,5.00,000.00,025.4,024.7,000.0,033.7,027.3,017.4,0000.0,0020.62,0007.94,0006.51
2024-04-23 21:33:00,SystemResetWarning,0830.3,5.01,000.00,025.4,024.7,000.0,033.7,027.3,017.2,0000.0,0018.79,0007.96,0006.50
2024-04-23 21:34:00,SystemResetWarning,0830.2,5.00,000.00,025.5,024.8,000.0,033.7,027.4,018.3,0000.0,0018.52,0007.95,0006.50
2024-04-23 21:35:00,SystemResetWarning,0830.2,5.01,000.00,025.5,024.9,000.0,033.8,027.4,016.8,0000.0,0019.03,0007.97,0006.51
2024-04-23 21:36:00,SystemResetWarning,0830.2,5.00,000.00,025.5,025.0,000.0,033.8,027.5,016.6,0000.0,0020.46,0008.04,0006.56
2024-04-23 21:37:00,SystemResetWarning,0830.2,4.99,000.00,025.6,025.0,000.0,033.8,027.5,017.6,0000.1,0020.34,0008.14,0006.62
2024-04-23 21:38:00,SystemResetWarning,0830.2,5.00,000.00,025.6,025.1,000.0,033.8,027.5,016.7,0000.7,0019.59,0008.13,0006.63
2024-04-23 21:39:00,SystemResetWarning,0830.2,5.00,000.00,025.7,025.1,000.0,033.9,027.6,016.3,0000.0,0019.66,0008.09,0006.62
2024-04-23 21:40:00,SystemResetWarning,0830.2,5.00,000.00,025.7,025.2,000.0,033.9,027.6,016.3,0000.0,0020.37,0008.11,0006.64
2024-04-23 21:41:00,SystemResetWarning,0830.3,5.00,000.00,025.7,025.2,000.0,033.9,027.7,015.9,0001.3,0020.65,0008.16,0006.66
2024-04-23 21:42:00,SystemResetWarning,0830.3,5.01,000.00,025.8,025.2,000.0,034.0,027.7,015.6,0003.3,0021.46,0008.17,0006.67
2024-04-23 21:43:00,SystemResetWarning,0830.2,5.01,000.00,025.8,025.3,000.0,034.0,027.7,016.9,0004.7,0020.55,0008.10,0006.68
2024-04-23 21:44:00,SystemResetWarning,0830.2,5.01,000.00,025.9,025.3,000.0,034.0,027.8,017.6,0004.7,0019.95,0008.06,0006.67
2024-04-23 21:45:00,SystemResetWarning,0830.3,5.00,000.00,025.9,025.4,000.0,034.1,027.8,016.7,0001.3,0020.35,0008.08,0006.66
2024-04-23 21:46:00,SystemResetWarning,0830.3,4.99,000.00,025.9,025.4,000.0,034.1,027.8,016.3,0000.0,0020.68,0008.09,0006.67
2024-04-23 21:47:00,SystemResetWarning,0830.3,5.00,000.00,025.8,023.7,000.0,034.2,026.9,016.5,0000.0,0019.59,0008.09,0006.66
2024-04-23 21:48:00,SystemResetWarning,0830.2,5.00,000.00,025.3,022.2,000.0,034.2,026.0,016.9,0000.0,0019.26,0008.08,0006.66
2024-04-23 21:49:00,SystemResetWarning,0830.3,5.01,000.00,025.1,022.3,000.0,034.1,025.9,016.9,0000.0,0020.00,0008.12,0006.67
2024-04-23 21:50:00,SystemResetWarning,0830.4,5.01,000.00,025.0,022.6,000.0,033.9,026.2,017.0,0000.0,0019.20,0008.18,0006.68
2024-04-23 21:51:00,SystemResetWarning,0830.4,4.99,000.00,025.0,023.0,000.0,033.8,026.5,018.2,0000.0,0018.81,0008.17,0006.69
2024-04-23 21:52:00,SystemResetWarning,0830.4,5.00,000.00,025.1,023.3,000.0,033.8,026.7,017.8,0000.0,0019.12,0008.14,0006.67
2024-04-23 21:53:00,SystemResetWarning,0830.4,5.00,000.00,025.1,023.6,000.0,033.7,026.8,017.4,0000.0,0018.20,0008.08,0006.66
2024-04-23 21:54:00,SystemResetWarning,0830.4,5.01,000.00,025.2,023.9,000.0,033.7,026.9,017.5,0000.0,0018.34,0008.10,0006.66
2024-04-23 21:55:00,SystemResetWarning,0830.4,5.00,000.00,025.2,024.1,000.0,033.7,027.0,017.4,0000.0,0019.53,0008.12,0006.66
2024-04-23 21:56:00,SystemResetWarning,0830.4,5.00,000.00,025.3,024.3,000.0,033.7,027.1,017.8,0000.0,0020.00,0008.08,0006.68
2024-04-23 21:57:00,SystemResetWarning,0830.4,5.00,000.00,025.3,024.4,000.0,033.7,027.2,017.0,0000.0,0020.45,0008.09,0006.71
2024-04-23 21:58:00,SystemResetWarning,0830.4,5.00,000.00,025.3,024.6,000.0,033.7,027.3,016.9,0000.0,0020.78,0008.14,0006.74
2024-04-23 21:59:00,SystemResetWarning,0830.4,5.00,000.00,025.4,024.7,000.0,033.7,027.3,016.6,0000.0,0020.81,0008.09,0006.74
